Starlink 31223

operational
NORAD ID: 58865 Int'l Des: 2024-019 Owner: SPXS Country: US Constellation: starlink
LEOCIRCULAR

关于 Starlink 31223

正在加载描述...

实时位置

正在加载3D地球...

即将过境

高度历史

Altitude vs Time

uPlot chart will show altitude changes over time

两行轨道根数

1 58865U 24019N 25306.13013296 .00007599 00000-0 28546-3 0 9997
2 58865 43.0015 249.3377 0000507 293.9174 66.1625 15.27571220 99555
Epoch: Nov 2, 2025 • Age: 28 hours

当前状态

高度 482.9 km
速度 7.63 km/s
星下点 24.86°N, 116.42°E
发射日期 Jan 29, 2024
运行时间 1.7 years
类型 internet

技术详情

分类 Payload
质量 730.00 kg
干质量 700.00 kg
总质量 730.00 kg
长度 0.30 m
直径 4.10 m
跨度 29.00 m
形状 Box + pan
制造商 SPXS
平台类型 Starlink V2M
阶段状态 In Orbit
所有者/国家 SPXS/US

大型星座

Loading constellations...